Regional Weather Roundup
Issued by NWS

Home | Current Version | Previous Version | Graphics & Text | Print | Product List | Glossary On
Versions: 1 2 3 4 5 6 7 8 9 10 11 12 13 14 15 16 17 18 19 20 21 22 23 24 25 26 27 28 29 30 31 32 33 34 35 36 37 38 39 40 41 42 43 44 45 46 47 48 49 50
000
ASUS43 KLMK 060602
RWRKY
KENTUCKY REGIONAL WEATHER ROUNDUP
NATIONAL WEATHER SERVICE LOUISVILLE KY
200 AM EDT FRI MAY 06 2016

NOTE "FAIR" INDICATES FEW OR NO CLOUDS BELOW 12,000 FEET
WITH NO SIGNIFICANT WEATHER AND/OR OBSTRUCTIONS TO VISIBILITY.

KYZ001>023-026-027-061>063-070>075-060700-
WESTERN AND SOUTH CENTRAL KENTUCKY

CITY           SKY/WX    TMP DP  RH WIND       PRES   REMARKS
PADUCAH        CLEAR     48  43  82 W5        30.01S
HENDERSON      CLEAR     48  45  87 W3        29.99S
OWENSBORO      PTCLDY    50  47  89 CALM      29.99S
HOPKINSVILLE   CLEAR     49  44  85 W6        29.99S
BOWLING GREEN  PTCLDY    51  45  79 NW5       29.97S
GLASGOW        NOT AVBL
$$

KYZ024-025-028>034-038-045-046-053-060700-
NORTH CENTRAL KENTUCKY

CITY           SKY/WX    TMP DP  RH WIND       PRES   REMARKS
LOUISVILLE/SDF CLEAR     54  45  71 NW9       29.95R
LOUISVILLE/LOU CLEAR     50  44  80 NW5       29.95R
FORT KNOX      CLEAR     47  44  89 W9        29.94R
$$

KYZ035>037-039>044-047>052-055>060-089>105-060700-
NORTHEAST KENTUCKY

CITY           SKY/WX    TMP DP  RH WIND       PRES   REMARKS
LEXINGTON      CLOUDY    50  46  86 NW6       29.91S
COVINGTON      PTCLDY    50  45  83 NW8       29.92R
FRANKFORT      PTCLDY    51  45  79 NW6       29.91S
$$

KYZ054-064>069-076>088-106>120-060700-
SOUTHEAST KENTUCKY

CITY           SKY/WX    TMP DP  RH WIND       PRES   REMARKS
JACKSON        CLEAR     45  43  93 W7        29.87S
LONDON         CLEAR     45  42  89 W3        29.91R
SOMERSET       NOT AVBL
MIDDLESBORO    CLOUDY    50  45  83 NW6       29.90S
MONTICELLO     CLOUDY    47  44  90 W10       29.95S
$$





USA.gov is the U.S. government's official web portal to all federal, state and local government web resources and services.